Weather History for Cincinnati, OH

Change the Weather History Date:

Thursday, December 19, 2013

  Actual Average Record
Temperature  
Mean Temperature 41 °F -  
Max Temperature 55 °F 42 °F 66 °F (2008)
Min Temperature 27 °F 26 °F -1 °F (1963)
Degree Days  
Heating Degree Days 24    
Moisture  
Dew Point 31 °F    
Average Humidity 57    
Maximum Humidity 75    
Minimum Humidity 47    
Precipitation  
Precipitation 0.00 in - - ()
Sea Level Pressure  
Sea Level Pressure 30.07 in    
Wind  
Wind Speed 9 mph (SSW)    
Max Wind Speed 15 mph    
Max Gust Speed 25 mph    
Visibility 10 miles    
Events      
Averages and records for this station are not official NWS values.
T = Trace of Precipitation, MM = Missing Value Source: NWS Daily Summary

Daily Weather History Graph

Daily Weather History Graph

Search for Another Location

Airport:

Trip Planner

Search our weather history database for the weather conditions in past years. The results will help you decide how hot, cold, wet, or windy it might be!

Date:

Astronomy

Dec. 19, 2013 Rise Set
Actual Time 7:52 AM EST 5:17 PM EST
Civil Twilight 7:22 AM EST 5:47 PM EST
Nautical Twilight 6:48 AM EST 6:21 PM EST
Astronomical Twilight 6:16 AM EST 6:53 PM EST
Moon 7:41 PM EST (12/19) 9:11 AM EST (12/19)
Length of Visible Light 10h 25m
Length of Day
9h 25m
Waning Gibbous, 95% of the Moon is Illuminated
Dec 19
Waning Gibbous
Dec 25
Last Quarter
Jan 1
New
Jan 7
First Quarter
Jan 15
Full

Hourly Weather History & Observations

Time (EST) Temp. Windchill Dew Point Humidity Pressure Visibility Wind Dir Wind Speed Gust Speed Precip Events Conditions
12:53 AM 30.0 °F 23.2 °F 21.0 °F 69% 30.09 in 10.0 mi WSW 6.9 mph - N/A   Clear
1:53 AM 27.0 °F - 19.9 °F 75% 30.09 in 10.0 mi Calm Calm - N/A   Clear
2:53 AM 28.9 °F 19.2 °F 21.0 °F 72% 30.09 in 10.0 mi SSW 11.5 mph - N/A   Clear
3:53 AM 33.1 °F 24.9 °F 23.0 °F 66% 30.11 in 10.0 mi SW 10.4 mph - N/A   Clear
4:53 AM 33.1 °F 25.5 °F 23.0 °F 66% 30.11 in 10.0 mi SW 9.2 mph - N/A   Clear
5:53 AM 37.0 °F 28.9 °F 21.9 °F 54% 30.10 in 10.0 mi SW 12.7 mph - N/A   Clear
6:53 AM 39.0 °F 31.0 °F 21.9 °F 50% 30.10 in 10.0 mi SW 13.8 mph - N/A   Clear
7:53 AM 41.0 °F 33.5 °F 23.0 °F 49% 30.11 in 10.0 mi SW 13.8 mph - N/A   Clear
8:53 AM 42.1 °F 35.2 °F 25.0 °F 51% 30.11 in 10.0 mi SW 12.7 mph - N/A   Clear
9:53 AM 46.0 °F 40.2 °F 28.9 °F 51% 30.12 in 10.0 mi SW 12.7 mph - N/A   Clear
10:53 AM 51.1 °F - 33.1 °F 50% 30.12 in 10.0 mi SW 11.5 mph - N/A   Clear
11:53 AM 53.1 °F - 35.1 °F 50% 30.11 in 10.0 mi SW 12.7 mph - N/A   Clear
12:53 PM 54.0 °F - 36.0 °F 51% 30.08 in 10.0 mi SSW 15.0 mph 21.9 mph N/A   Clear
1:53 PM 54.0 °F - 36.0 °F 51% 30.06 in 10.0 mi SSW 15.0 mph 25.3 mph N/A   Clear
2:53 PM 55.9 °F - 36.0 °F 47% 30.05 in 10.0 mi SSW 12.7 mph - N/A   Clear
3:53 PM 55.0 °F - 36.0 °F 49% 30.04 in 10.0 mi SSW 12.7 mph - N/A   Clear
4:53 PM 50.0 °F - 36.0 °F 59% 30.04 in 10.0 mi South 8.1 mph - N/A   Clear
5:53 PM 52.0 °F - 35.1 °F 53% 30.03 in 10.0 mi SW 3.5 mph - N/A   Clear
6:53 PM 48.9 °F - 37.0 °F 64% 30.03 in 10.0 mi SSW 5.8 mph - N/A   Clear
7:53 PM 50.0 °F - 39.0 °F 66% 30.04 in 10.0 mi SSW 8.1 mph - N/A   Clear
8:53 PM 51.1 °F - 39.0 °F 63% 30.02 in 10.0 mi South 10.4 mph - N/A   Scattered Clouds
9:53 PM 52.0 °F - 37.9 °F 59% 30.01 in 10.0 mi South 9.2 mph - N/A   Overcast
10:53 PM 53.1 °F - 36.0 °F 52% 30.00 in 10.0 mi SSW 11.5 mph - N/A   Overcast
11:53 PM 53.1 °F - 34.0 °F 48% 29.99 in 10.0 mi SSW 11.5 mph - N/A   Mostly Cloudy